Location: Boquerón
(10.0687°N, 67.9212°W)
Time: 11:58:28
(UTC+00:00)

Cosmos 921 Rocket - Pass Details

Date: 29 May 2024
Orbit: 568 x 625 km, 75.8° (Epoch: 16 June)

Event Time Altitude Azimuth Distance (km) Brightness Sun altitude
Rises 23:05:26 0° 186° (S) 2,871 6.3 -4.5°
Reaches altitude 10° 23:07:40 10° 183° (S) 1,973 5.5 -5.0°
Maximum altitude 23:12:03 68° 100° (E) 668 3.0 -6.0°
Drops below altitude 10° 23:16:28 10° 18° (NNE) 1,990 5.8 -7.0°
Sets 23:18:44 0° 15° (NNE) 2,897 6.6 -7.5°
